Ephrata, WA
on Sunday, November 4, 2012

Sunday
Previous Day Next Day
Daily Summary
 ActualAverageRecord
Temperature
Mean Temperature °F / °C 42°F / 6°C  
Max Temperature 58°F / 14°C 51°F / 11°C 69°F / 20°C (2007)
Min Temperature 46°F / 8°C 32°F / 0°C 3°F / -16°C (1973)
Degree Days
Heating Degree Days 13 23  
Month to date heating degree days 61 90  
Since 1 July heating degree days 556 671  
Cooling Degree Days 0 0  
Month to date cooling degree days 0 0  
Year to date cooling degree days 837 772  
Growing Degree Days2 (Base °F / °C )  
Moisture
Dew Point 47°F / 8°C   
Average Humidity 83    
Maximum Humidity 93    
Minimum Humidity 72    
Precipitation
Precipitation 0.00 in / 0.00 cm 0.03 in / 0.76 cm 0.25 in / 0.63 cm (1973)
Month to date precipitation 0.05 0.11  
Year to date precipitation 5.91 5.66  
Wind
Wind Speed 4 mph / 6 km/h   
Max Wind Speed 9 mph / 14 km/h   
Max Gust Speed 12 mph / 19 km/h   
Visibility 9 miles / 14 kilometers   
Events     

Key: T is trace of precipitation, MM is missing value
Source: NWS Daily Summary
Time(PST)TemperatureDew PointHumidity Pressure Visibility Wind DirectionWind SpeedGust SpeedPrecipitationEvents Conditions
12:53 AM 50.0°F / 10.0°C 48.0°F / 8.9°C 93% 30.17 in / 1021.6 hPa 7.0 miles / 11.3 kilometers Calm Calm - N/A   Mostly Cloudy
1:53 AM 48.9°F / 9.4°C 46.9°F / 8.3°C 93% 30.18 in / 1021.8 hPa 7.0 miles / 11.3 kilometers Calm Calm - N/A   Mostly Cloudy
1:53 AM 48.9°F / 9.4°C 46.9°F / 8.3°C 93% 30.18 in / 1021.9 hPa 7.0 miles / 11.3 kilometers West 3.5 mph / 5.6 km/h - N/A   Overcast
2:53 AM 48.9°F / 9.4°C 46.0°F / 7.8°C 90% 30.18 in / 1021.9 hPa 10.0 miles / 16.1 kilometers SW 3.5 mph / 5.6 km/h - N/A   Overcast
3:53 AM 48.0°F / 8.9°C 46.0°F / 7.8°C 93% 30.20 in / 1022.5 hPa 7.0 miles / 11.3 kilometers East 5.8 mph / 9.3 km/h - N/A   Overcast
4:53 AM 48.9°F / 9.4°C 46.0°F / 7.8°C 90% 30.20 in / 1022.5 hPa 8.0 miles / 12.9 kilometers Calm Calm - N/A   Overcast
5:53 AM 46.9°F / 8.3°C 45.0°F / 7.2°C 93% 30.22 in / 1023.3 hPa 8.0 miles / 12.9 kilometers North 8.1 mph / 13.0 km/h - N/A   Overcast
6:53 AM 48.9°F / 9.4°C 46.9°F / 8.3°C 93% 30.25 in / 1024.4 hPa 6.0 miles / 9.7 kilometers North 5.8 mph / 9.3 km/h - N/A   Overcast
7:53 AM 50.0°F / 10.0°C 46.9°F / 8.3°C 89% 30.27 in / 1025.0 hPa 7.0 miles / 11.3 kilometers NNE 5.8 mph / 9.3 km/h - N/A   Mostly Cloudy
8:53 AM 51.1°F / 10.6°C 46.9°F / 8.3°C 86% 30.27 in / 1024.9 hPa 10.0 miles / 16.1 kilometers NE 4.6 mph / 7.4 km/h - N/A   Clear
9:53 AM 52.0°F / 11.1°C 46.9°F / 8.3°C 83% 30.28 in / 1025.3 hPa 10.0 miles / 16.1 kilometers North 5.8 mph / 9.3 km/h - N/A   Clear
10:53 AM 53.1°F / 11.7°C 48.0°F / 8.9°C 83% 30.28 in / 1025.4 hPa 10.0 miles / 16.1 kilometers NE 5.8 mph / 9.3 km/h - N/A   Clear
11:53 AM 54.0°F / 12.2°C 48.0°F / 8.9°C 80% 30.28 in / 1025.3 hPa 10.0 miles / 16.1 kilometers North 6.9 mph / 11.1 km/h - N/A   Clear
12:53 PM 55.9°F / 13.3°C 48.9°F / 9.4°C 77% 30.27 in / 1025.1 hPa 10.0 miles / 16.1 kilometers North 4.6 mph / 7.4 km/h - N/A   Clear
1:53 PM 55.9°F / 13.3°C 48.9°F / 9.4°C 77% 30.27 in / 1024.9 hPa 10.0 miles / 16.1 kilometers North 5.8 mph / 9.3 km/h - N/A   Clear
2:53 PM 57.9°F / 14.4°C 48.9°F / 9.4°C 72% 30.27 in / 1025.1 hPa 10.0 miles / 16.1 kilometers Calm Calm - N/A   Clear
3:53 PM 57.0°F / 13.9°C 50.0°F / 10.0°C 77% 30.27 in / 1025.0 hPa 10.0 miles / 16.1 kilometers NNE 3.5 mph / 5.6 km/h - N/A   Clear
4:53 PM 54.0°F / 12.2°C 48.9°F / 9.4°C 83% 30.26 in / 1024.5 hPa 10.0 miles / 16.1 kilometers NW 4.6 mph / 7.4 km/h - N/A   Clear
5:53 PM 52.0°F / 11.1°C 48.0°F / 8.9°C 86% 30.25 in / 1024.3 hPa 8.0 miles / 12.9 kilometers Calm Calm - N/A   Clear
6:53 PM 50.0°F / 10.0°C 48.0°F / 8.9°C 93% 30.26 in / 1024.5 hPa 10.0 miles / 16.1 kilometers NNE 3.5 mph / 5.6 km/h - N/A   Clear
7:53 PM 50.0°F / 10.0°C 48.0°F / 8.9°C 93% 30.25 in / 1024.3 hPa 10.0 miles / 16.1 kilometers NNE 3.5 mph / 5.6 km/h - N/A   Clear
8:53 PM 48.0°F / 8.9°C 46.9°F / 8.3°C 96% 30.24 in / 1023.8 hPa 10.0 miles / 16.1 kilometers Calm Calm - N/A   Clear
9:53 PM 48.0°F / 8.9°C 46.0°F / 7.8°C 93% 30.25 in / 1024.4 hPa 8.0 miles / 12.9 kilometers NNE 4.6 mph / 7.4 km/h - N/A   Clear
10:53 PM 48.0°F / 8.9°C 45.0°F / 7.2°C 89% 30.23 in / 1023.6 hPa 8.0 miles / 12.9 kilometers NNW 4.6 mph / 7.4 km/h - N/A   Clear
Moon Phase
Nov. 04 Nov. 06 Nov. 13 Nov. 20 Nov. 28
Sunrise:06:46 AM (PST) Moon Rise:09:15 PM (PST)11/4
Sunset:04:35 PM (PST) Moon Set:11:37 AM (PST)11/4

Copyright © 2014 The Weather Underground, Inc.